Zurück zum Katalog

HERMES 4

AktivKommunikationSSO
NORAD 63833·PAYLOAD·🇮🇹 Italy

Gestartet Mar 15, 2025 von Vandenberg Space Force Base

Loading…

Nächste Überflüge (nächste 24 Stunden)

TLE

AktuellSource: Space-Track

Epoche: Sep 14, 2026, 10:15 UTC

1 63833U 25052BP  26257.42764055  .00007417  00000-0  24213-3 0  9996
2 63833  97.3740 150.8425 0001083 203.6286 156.4907 15.32060428 83609

Verfolge HERMES 4 in Echtzeit mit AllMySat

Download on the App Store